1495897200.11,33645,15.31,74262.3,7.63,-32.63,-33.03,0,*7F
1495897201.36,33646,15.31,74266.3,7.59,-34.19,-34.53,0,*7C
1495897202.59,33647,15.31,74268.0,7.55,-33.31,-33.55,0,*7D
1495897203.81,33648,15.31,74270.0,7.57,-31.01,-31.17,0,*75
1495897205.06,33649,15.31,74260.0,7.55,-31.51,-31.57,0,*77
1495897206.28,33650,15.31,74262.5,7.57,-32.35,-32.51,0,*79
1495897207.54,33651,15.31,74258.0,7.55,-31.73,-32.07,0,*78
1495897208.74,33652,15.31,74260.8,7.55,-31.01,-31.05,0,*7F
1495897209.97,33653,15.31,74262.0,7.55,-30.89,-31.01,0,*7B
1495897211.23,33654,15.31,74260.0,7.57,-32.51,-32.75,0,*79
1495897212.46,33655,15.31,74260.8,7.55,-32.23,-32.45,0,*7C
1495897213.71,33656,15.31,74256.3,7.51,-31.85,-32.19,0,*7D
1495897214.96,33657,15.31,74256.3,7.51,-31.39,-31.57,0,*72
1495897216.23,33658,15.31,74256.3,7.53,-31.51,-31.57,0,*71
1495897217.44,33659,15.31,74256.8,7.51,-31.45,-31.79,0,*7B
1495897218.66,33660,15.31,74258.3,7.51,-31.95,-32.01,0,*70
1495897219.91,33661,15.31,74258.3,7.51,-31.57,-31.73,0,*79
1495897221.14,33662,15.31,74262.0,7.51,-30.55,-30.67,0,*7D
1495897222.4,33663,15.31,74258.8,7.51,-31.11,-31.11,0,*7D
1495897223.6,33664,15.31,74260.5,7.51,-30.33,-30.33,0,*7A
1495897224.85,33665,15.31,74260.3,7.53,-31.67,-31.73,0,*7C
1495897226.11,33666,15.31,74260.0,7.51,-31.57,-31.61,0,*7D
1495897227.35,33667,15.31,74256.3,7.51,-32.19,-32.29,0,*7A
1495897228.63,33668,15.31,74256.0,7.49,-30.61,-30.55,0,*78
1495897229.88,33669,15.31,74258.3,7.49,-29.79,-29.73,0,*74
1495897231.09,33670,15.31,74256.3,7.51,-29.61,-29.67,0,*79
1495897232.32,33671,15.31,74256.8,7.53,-29.45,-29.57,0,*7F
1495897233.61,33672,15.31,74260.3,7.53,-31.91,-32.07,0,*73
1495897234.84,33673,15.31,74254.8,7.53,-33.21,-33.55,0,*7D
1495897236.05,33674,15.31,74260.5,7.51,-34.47,-34.71,0,*7E
1495897237.29,33675,15.31,74260.5,7.47,-32.91,-33.49,0,*79
1495897238.56,33676,15.31,74256.8,7.43,-31.51,-31.73,0,*7A
1495897239.8,33677,15.31,74262.5,7.43,-31.01,-31.23,0,*7B
1495897241.05,33678,15.31,74260.0,7.43,-31.95,-32.23,0,*7A
1495897242.3,33679,15.31,74262.5,7.41,-32.07,-32.29,0,*7B
1495897243.52,33680,15.31,74260.8,7.41,-32.97,-33.21,0,*7D
1495897244.74,33681,15.31,74258.3,7.41,-31.33,-31.39,0,*7A
1495897245.96,33682,15.31,74262.3,7.41,-31.67,-31.73,0,*76
1495897247.18,33683,15.31,74262.3,7.41,-31.57,-31.67,0,*71
1495897248.41,33684,15.31,74256.3,7.37,-32.07,-32.35,0,*75
1495897249.67,33685,15.31,74256.8,7.37,-32.85,-33.09,0,*70
1495897250.92,33686,15.31,74260.0,7.35,-32.07,-32.35,0,*75
1495897252.17,33687,15.31,74260.3,7.35,-31.95,-32.23,0,*7B
1495897253.43,33688,15.31,74260.0,7.35,-32.01,-31.95,0,*74
1495897254.69,33689,15.31,74258.3,7.33,-32.07,-32.07,0,*7D
1495897255.94,33690,15.31,74262.8,7.35,-30.45,-30.61,0,*75
1495897257.17,33691,15.31,74262.0,7.33,-30.33,-30.51,0,*70
1495897258.39,33692,15.31,74256.8,7.35,-31.01,-31.01,0,*71
1495897259.59,33693,15.31,74258.5,7.33,-30.45,-30.33,0,*77
1495897260.8,33694,15.31,74262.0,7.33,-30.83,-31.05,0,*7E
1495897262.07,33695,15.31,74260.3,7.35,-30.55,-30.61,0,*71
1495897263.28,33696,15.31,74262.0,7.33,-30.33,-30.33,0,*73
1495897264.5,33697,15.31,74262.3,7.33,-30.33,-30.51,0,*76
1495897265.73,33698,15.31,74262.0,7.33,-31.33,-31.39,0,*77
1495897267.01,33699,15.31,74260.0,7.35,-30.77,-30.89,0,*7B
1495897268.29,33700,15.31,74258.8,7.35,-30.05,-30.05,0,*7B
1495897269.56,33701,15.31,74264.3,7.35,-30.73,-30.95,0,*72
1495897270.81,33702,15.31,74260.0,7.33,-31.51,-31.51,0,*7F
1495897272.01,33703,15.31,74256.0,7.37,-31.45,-31.67,0,*7A
1495897273.24,33704,15.31,74252.0,7.33,-31.33,-31.39,0,*73
1495897274.5,33705,15.31,74258.0,7.33,-31.73,-31.91,0,*74
1495897275.77,33706,15.31,74256.5,7.31,-32.29,-32.63,0,*77
1495897276.97,33707,15.31,74258.5,7.29,-31.79,-32.13,0,*7E
1495897278.22,33708,15.31,74256.0,7.29,-32.19,-32.63,0,*73
1495897279.5,33709,15.31,74254.3,7.31,-31.73,-31.91,0,*7A
1495897280.73,33710,15.31,74256.8,7.29,-31.91,-32.13,0,*7E
1495897281.95,33711,15.31,74252.3,7.27,-32.35,-32.51,0,*7A
1495897283.21,33712,15.31,74252.8,7.25,-32.75,-33.09,0,*73
1495897284.43,33713,15.31,74252.0,7.25,-32.13,-32.19,0,*72
1495897285.69,33714,15.31,74250.8,7.21,-31.73,-31.91,0,*77
1495897286.94,33715,15.31,74250.8,7.25,-30.55,-30.73,0,*7A
1495897288.18,33716,15.31,74250.8,7.25,-30.39,-30.55,0,*77
1495897289.38,33717,15.31,74254.0,7.25,-31.45,-31.67,0,*7C
1495897290.59,33718,15.31,74254.5,7.25,-32.01,-32.39,0,*78
1495897291.82,33719,15.31,74248.8,7.21,-31.91,-32.01,0,*7C
1495897293.07,33720,15.31,74248.0,7.21,-32.45,-32.63,0,*78
1495897294.32,33721,15.31,74252.8,7.19,-32.07,-32.23,0,*70
1495897295.56,33722,15.31,74252.3,7.19,-32.13,-32.29,0,*7C
1495897296.83,33723,15.31,74248.8,7.19,-32.63,-32.97,0,*7F
1495897298.09,33724,15.31,74250.8,7.19,-30.73,-30.83,0,*7C
1495897299.34,33725,15.31,74256.3,7.17,-31.57,-31.73,0,*7A
1495897300.59,33726,15.31,74254.3,7.15,-32.29,-32.51,0,*72
1495897301.85,33727,15.31,74254.3,7.15,-32.57,-32.85,0,*73
1495897303.13,33728,15.31,74248.0,7.15,-30.05,-30.17,0,*70
1495897304.39,33729,15.31,74250.0,7.15,-30.27,-30.61,0,*70
1495897305.68,33730,15.31,74246.0,7.15,-31.61,-31.85,0,*70
1495897306.93,33731,15.31,74242.3,7.15,-31.33,-31.51,0,*7F
1495897308.16,33732,15.31,74244.8,7.17,-31.01,-31.23,0,*7A
1495897309.39,33733,15.31,74244.0,7.17,-30.51,-30.67,0,*7E
1495897310.63,33734,15.31,74250.8,7.17,-31.39,-31.73,0,*72
1495897311.88,33735,15.31,74250.5,7.17,-32.79,-32.97,0,*7D
1495897313.13,33736,15.31,74250.3,7.15,-33.95,-34.35,0,*71
1495897314.35,33737,15.31,74246.3,7.13,-32.57,-32.85,0,*74
1495897315.56,33738,15.31,74246.0,7.13,-32.01,-32.13,0,*77
1495897316.78,33739,15.31,74242.8,7.13,-31.61,-31.79,0,*7C
1495897318.03,33740,15.31,74246.3,7.11,-32.19,-32.35,0,*77
1495897319.28,33741,15.31,74244.8,7.11,-32.57,-32.79,0,*74
1495897320.5,33742,15.31,74240.8,7.11,-31.01,-31.29,0,*71
1495897321.7,33743,15.31,74244.0,7.13,-31.67,-31.79,0,*77
1495897322.97,33744,15.31,74244.5,7.11,-32.63,-33.09,0,*70
1495897324.2,33745,15.31,74244.3,7.09,-31.23,-31.33,0,*74
1495897325.42,33746,15.31,74246.0,7.09,-31.61,-31.79,0,*7F
1495897326.68,33747,15.31,74246.5,7.09,-30.51,-30.73,0,*77
1495897327.95,33748,15.31,74242.3,7.11,-29.89,-30.05,0,*7D
1495897329.16,33749,15.31,74242.5,7.13,-29.57,-29.67,0,*71
1495897330.38,33750,15.31,74246.3,7.13,-31.05,-31.23,0,*7E
1495897331.62,33751,15.31,74246.8,7.15,-31.29,-31.45,0,*77
1495897332.85,33752,15.31,74248.8,7.11,-32.01,-32.35,0,*7D
1495897334.08,33753,15.31,74248.8,7.13,-31.45,-31.61,0,*7F
1495897335.28,33754,15.31,74248.0,7.13,-31.45,-31.79,0,*71
1495897336.56,33755,15.31,74248.5,7.11,-32.79,-33.27,0,*77
1495897337.81,33756,15.31,74248.8,7.11,-31.85,-32.01,0,*71
1495897339.03,33757,15.31,74246.5,7.09,-30.55,-30.83,0,*7D
1495897340.23,33758,15.31,74250.5,7.09,-32.39,-32.69,0,*7C
1495897341.43,33759,15.31,74244.0,7.09,-31.01,-31.33,0,*79
1495897342.65,33760,15.31,74248.0,7.09,-32.39,-32.79,0,*76
1495897343.88,33761,15.31,74248.3,7.09,-32.45,-32.69,0,*7D
1495897345.13,33762,15.31,74254.5,7.07,-32.63,-33.03,0,*79
1495897346.39,33763,15.31,74254.0,7.05,-33.09,-33.43,0,*73
1495897347.66,33764,15.31,74254.0,7.03,-31.95,-32.29,0,*78
1495897348.89,33765,15.31,74256.0,7.03,-32.51,-32.91,0,*71
1495897350.17,33766,15.31,74256.0,7.03,-31.39,-31.51,0,*70
1495897351.45,33767,15.31,74250.5,7.03,-30.95,-31.11,0,*72
1495897352.64,33768,15.31,74254.8,7.05,-32.35,-32.57,0,*72
1495897353.9,33769,15.31,74254.0,7.03,-33.27,-33.61,0,*73
1495897355.15,33770,15.31,74254.0,6.99,-32.35,-32.79,0,*73
1495897356.4,33771,15.31,74252.0,6.97,-31.39,-31.61,0,*79
1495897357.62,33772,15.31,74254.0,6.99,-31.67,-32.01,0,*7A
1495897358.84,33773,15.31,74254.8,6.97,-31.79,-31.91,0,*70
1495897360.1,33774,15.31,74252.8,6.97,-31.61,-32.07,0,*72
1495897361.32,33775,15.31,74250.8,6.97,-32.63,-33.15,0,*70
1495897362.56,33776,15.31,74248.3,6.97,-31.51,-31.61,0,*70
1495897363.76,33777,15.31,74254.8,6.97,-30.67,-31.05,0,*77
1495897364.96,33778,15.31,74248.0,6.97,-31.05,-31.17,0,*7E
1495897366.19,33779,15.31,74248.5,6.99,-31.45,-31.67,0,*72
1495897367.43,33780,15.31,74244.5,6.97,-31.39,-31.57,0,*72
1495897368.65,33781,15.31,74248.5,6.97,-30.51,-30.83,0,*74
1495897369.9,33782,15.31,74248.3,6.99,-30.05,-30.45,0,*72
1495897371.17,33783,15.31,74248.0,6.99,-30.39,-30.51,0,*79
1495897372.44,33784,15.31,74252.3,7.03,-30.01,-30.05,0,*76
1495897373.72,33785,15.31,74250.5,7.03,-30.73,-30.95,0,*7B
1495897374.97,33786,15.31,74248.8,7.05,-31.61,-31.85,0,*7C
1495897376.19,33787,15.31,74252.3,7.05,-30.33,-30.55,0,*77
1495897377.44,33788,15.31,74250.8,7.07,-30.73,-31.01,0,*7E
1495897378.63,33789,15.31,74250.3,7.05,-32.35,-32.57,0,*7D
1495897379.84,33790,15.31,74254.8,7.05,-32.29,-32.57,0,*78
1495897381.1,33791,15.31,74252.3,7.03,-33.37,-33.77,0,*72
1495897382.38,33792,15.31,74248.5,6.99,-33.09,-33.27,0,*7B
1495897383.58,33793,15.31,74250.8,6.97,-32.23,-32.39,0,*73
1495897384.8,33794,15.31,74250.8,6.97,-31.79,-32.07,0,*75
1495897386.0,33795,15.31,74250.5,6.97,-33.21,-33.67,0,*7C
1495897387.25,33796,15.31,74250.3,6.95,-32.63,-33.03,0,*78
1495897388.47,33797,15.31,74252.3,6.93,-32.63,-33.03,0,*7F
1495897389.73,33798,15.31,74250.5,6.93,-32.85,-33.27,0,*7E
1495897390.98,33799,15.31,74248.0,6.91,-32.35,-32.63,0,*77
1495897392.21,33800,15.31,74244.5,6.91,-32.69,-33.03,0,*76
1495897393.47,33801,15.31,74242.0,6.89,-32.79,-33.27,0,*79
1495897394.73,33802,15.38,74254.5,6.91,-30.89,-31.05,0,*7C
1495897396.0,33803,15.31,74258.8,6.91,-30.77,-30.95,0,*74
1495897397.23,33804,15.31,74254.3,6.89,-34.01,-34.41,0,*72
1495897398.44,33805,15.31,74246.0,6.89,-32.69,-32.69,0,*77
1495897399.7,33806,15.31,74252.0,6.89,-31.61,-31.91,0,*7B
1495897400.93,33807,15.31,74252.8,6.89,-30.95,-31.17,0,*7E
1495897402.14,33808,15.31,74258.5,6.89,-32.39,-32.69,0,*7F
1495897403.42,33809,15.31,74254.8,6.87,-32.75,-32.79,0,*79
1495897404.64,33810,15.31,74258.0,6.87,-31.05,-31.33,0,*78
1495897405.89,33811,15.31,74258.5,6.85,-31.57,-31.91,0,*74
1495897407.13,33812,15.31,74262.3,6.87,-30.83,-31.17,0,*73
1495897408.33,33813,15.31,74256.8,6.85,-30.11,-30.45,0,*7D
1495897409.59,33814,15.31,74256.5,6.87,-29.95,-30.17,0,*7B
1495897410.84,33815,15.31,74254.8,6.91,-30.01,-30.33,0,*7E
1495897412.1,33816,15.31,74258.0,6.89,-30.39,-30.73,0,*7B
1495897413.34,33817,15.31,74256.5,6.91,-31.39,-31.67,0,*76
1495897414.58,33818,15.31,74254.5,6.89,-32.01,-32.29,0,*71
1495897415.83,33819,15.31,74252.5,6.91,-30.73,-31.05,0,*73
1495897417.08,33820,15.31,74256.0,6.91,-30.17,-30.23,0,*7E
1495897418.36,33821,15.31,74258.8,6.91,-30.39,-30.61,0,*75
1495897419.59,33822,15.31,74256.0,6.91,-31.45,-31.67,0,*7B
1495897420.86,33823,15.31,74256.0,6.91,-32.19,-32.51,0,*76
1495897422.08,33824,15.31,74252.0,6.89,-31.85,-32.01,0,*7B
1495897423.34,33825,15.31,74256.8,6.93,-31.11,-31.11,0,*7E
1495897424.58,33826,15.31,74256.8,6.93,-31.39,-31.57,0,*75
1495897425.81,33827,15.31,74254.3,6.91,-31.79,-32.13,0,*71
1495897427.04,33828,15.31,74258.3,6.89,-31.29,-31.51,0,*77
1495897428.26,33829,15.31,74248.3,6.93,-30.33,-30.51,0,*76
1495897429.52,33830,15.31,74252.5,6.93,-30.51,-30.73,0,*7A
1495897430.77,33831,15.31,74248.5,6.93,-29.39,-29.35,0,*77
1495897432.02,33832,15.31,74254.8,6.95,-29.35,-29.79,0,*76
1495897433.27,33833,15.31,74254.0,6.95,-31.05,-31.39,0,*70
1495897434.5,33834,15.31,74258.0,6.95,-30.27,-30.45,0,*7C
1495897435.72,33835,15.31,74256.8,6.95,-31.01,-31.01,0,*79
1495897436.97,33836,15.31,74256.3,6.95,-30.33,-30.73,0,*7E
1495897438.22,33837,15.31,74258.5,6.95,-30.89,-31.05,0,*7E
1495897439.47,33838,15.31,74256.0,6.95,-29.79,-30.01,0,*73
1495897440.68,33839,15.31,74252.3,6.95,-29.23,-29.23,0,*75
1495897441.91,33840,15.31,74256.8,6.99,-29.07,-29.07,0,*77
1495897443.14,33841,15.31,74260.8,6.99,-28.53,-28.85,0,*7D
1495897444.42,33842,15.31,74264.8,6.99,-30.51,-30.77,0,*71
1495897445.65,33843,15.31,74262.5,6.99,-30.45,-30.83,0,*7E
1495897446.93,33844,15.31,74266.3,7.03,-31.23,-31.51,0,*74
1495897448.19,33845,15.31,74262.5,6.99,-32.19,-32.51,0,*7E
1495897449.46,33846,15.31,74262.5,6.99,-31.85,-31.73,0,*78
1495897450.72,33847,15.31,74262.3,6.99,-30.77,-31.01,0,*70
1495897451.97,33848,15.31,74262.5,6.99,-30.51,-30.83,0,*70
1495897453.25,33849,15.31,74260.0,6.99,-30.95,-31.11,0,*73
1495897454.48,33850,15.31,74266.3,6.97,-30.89,-31.17,0,*7E
1495897455.7,33851,15.31,74266.8,6.97,-31.05,-31.39,0,*76
1495897456.95,33852,15.31,74260.3,6.99,-29.29,-29.45,0,*7E
1495897458.19,33853,15.31,74262.5,6.97,-28.59,-28.79,0,*79
1495897459.44,33854,15.31,74264.0,6.99,-30.77,-31.01,0,*72
1495897460.67,33855,15.31,74260.0,6.97,-30.17,-30.33,0,*7B
1495897461.92,33856,15.31,74262.3,6.99,-29.57,-29.73,0,*76
1495897463.17,33857,15.31,74264.3,6.99,-29.01,-29.23,0,*71
1495897464.4,33858,15.31,74264.8,7.05,-29.89,-30.23,0,*72
1495897465.6,33859,15.31,74266.5,7.05,-31.05,-31.29,0,*75
1495897466.85,33860,15.31,74262.8,7.03,-31.51,-31.79,0,*7D
1495897468.12,33861,15.31,74260.0,7.03,-30.17,-30.39,0,*7A
1495897469.4,33862,15.31,74266.5,7.03,-29.17,-29.35,0,*75
1495897470.65,33863,15.31,74264.8,7.07,-29.29,-29.67,0,*7A
1495897471.93,33864,15.31,74264.3,7.03,-30.73,-30.95,0,*7B
1495897473.15,33865,15.31,74268.3,7.05,-30.01,-30.23,0,*74
1495897474.36,33866,15.31,74266.5,7.05,-29.67,-29.83,0,*7D
1495897475.63,33867,15.31,74266.5,7.07,-29.29,-29.51,0,*7B
1495897476.86,33868,15.31,74266.5,7.07,-29.95,-30.27,0,*7A
1495897478.12,33869,15.31,74264.0,7.07,-30.73,-31.17,0,*79
1495897479.35,33870,15.31,74262.3,7.07,-29.83,-30.11,0,*71
1495897480.55,33871,15.31,74262.5,7.09,-29.45,-29.83,0,*77
1495897481.81,33872,15.31,74262.8,7.07,-31.33,-31.61,0,*77
1495897483.06,33873,15.31,74258.8,7.07,-31.05,-31.23,0,*75
1495897484.34,33874,15.31,74266.0,7.07,-30.51,-30.73,0,*76
1495897485.54,33875,15.31,74258.5,7.09,-29.83,-30.11,0,*7A
1495897486.76,33876,15.31,74260.3,7.09,-30.33,-30.55,0,*7A
1495897488.01,33877,15.31,74260.8,7.07,-30.27,-30.55,0,*70
1495897489.24,33878,15.31,74262.5,7.09,-30.51,-30.83,0,*7B
1495897490.47,33879,15.31,74264.3,7.09,-30.67,-30.89,0,*75
1495897491.67,33880,15.31,74266.0,7.09,-31.79,-32.13,0,*7C
1495897492.89,33881,15.31,74262.5,7.09,-32.13,-32.45,0,*71
1495897494.15,33882,15.31,74258.0,7.07,-31.01,-31.23,0,*7F
1495897495.37,33883,15.31,74252.3,7.05,-31.05,-31.39,0,*73
1495897496.6,33884,15.31,74252.8,7.05,-31.23,-31.45,0,*7B
1495897497.82,33885,15.31,74260.3,7.05,-30.45,-30.95,0,*77
1495897499.07,33886,15.31,74258.0,7.03,-32.29,-32.51,0,*70
1495897500.3,33887,15.31,74250.3,7.05,-31.85,-32.01,0,*77
1495897501.55,33888,15.31,74252.3,7.05,-31.39,-31.61,0,*7A
1495897502.8,33889,15.31,74244.5,7.03,-33.55,-34.01,0,*76
1495897504.04,33890,15.31,74250.0,6.99,-34.59,-35.01,0,*76
1495897505.25,33891,15.31,74244.3,6.95,-33.55,-34.13,0,*72
1495897506.51,33892,15.31,74246.8,6.91,-33.09,-33.55,0,*79
1495897507.76,33893,15.31,74248.8,6.91,-32.35,-32.75,0,*75
1495897509.02,33894,15.31,74248.5,6.91,-31.45,-31.57,0,*75
1495897510.25,33895,15.31,74250.0,6.89,-31.29,-31.61,0,*72
1495897511.48,33896,15.31,74254.3,6.91,-32.51,-32.91,0,*78
1495897512.71,33897,15.31,74248.8,6.89,-33.49,-34.07,0,*71
1495897513.94,33898,15.31,74250.0,6.89,-32.19,-32.35,0,*7D
1495897515.22,33899,15.31,74248.0,6.87,-30.61,-30.73,0,*7F
1495897516.47,33900,15.31,74252.3,6.87,-30.89,-31.17,0,*7B
1495897517.7,33901,15.31,74254.0,6.89,-31.17,-31.51,0,*70
1495897518.91,33902,15.31,74256.3,6.89,-32.39,-32.69,0,*74
1495897520.13,33903,15.31,74256.5,6.87,-35.13,-35.59,0,*70
1495897521.39,33904,15.31,74258.8,6.83,-34.65,-35.07,0,*78
1495897522.61,33905,15.31,74254.3,6.83,-32.35,-32.79,0,*74
1495897523.89,33906,15.31,74254.0,6.81,-33.09,-33.43,0,*73
1495897525.11,33907,15.31,74252.5,6.81,-32.01,-32.35,0,*7B
1495897526.36,33908,15.31,74256.5,6.81,-31.39,-31.45,0,*78
1495897527.64,33909,15.31,74258.0,6.81,-31.95,-32.19,0,*75
1495897528.89,33910,15.31,74256.8,6.81,-32.35,-32.79,0,*72
1495897530.16,33911,15.31,74256.3,6.81,-32.79,-33.27,0,*71
1495897531.36,33912,15.31,74254.0,6.75,-31.67,-31.67,0,*73
1495897532.58,33913,15.31,74254.0,6.79,-31.33,-31.61,0,*79
1495897533.81,33914,15.31,74248.3,6.79,-30.61,-30.83,0,*75
1495897535.06,33915,15.31,74252.8,6.79,-30.95,-31.11,0,*75
1495897536.31,33916,15.31,74256.8,6.79,-29.51,-29.51,0,*7B
1495897537.55,33917,15.31,74254.5,6.83,-29.83,-30.17,0,*7A
1495897538.77,33918,15.31,74256.0,6.87,-29.61,-29.79,0,*7D
1495897539.98,33919,15.31,74254.8,6.85,-29.61,-29.83,0,*7B
1495897541.23,33920,15.31,74256.0,6.85,-29.29,-29.51,0,*72
1495897542.49,33921,15.31,74258.0,6.87,-30.51,-30.83,0,*71
1495897543.69,33922,15.31,74258.8,6.89,-32.35,-32.69,0,*7A
1495897544.92,33923,15.31,74256.3,6.89,-30.95,-31.29,0,*74
1495897546.12,33924,15.31,74258.5,6.89,-30.45,-30.67,0,*75
1495897547.35,33925,15.31,74258.0,6.89,-31.11,-31.33,0,*74
1495897548.58,33926,15.31,74256.0,6.89,-31.29,-31.51,0,*78
1495897549.83,33927,15.31,74256.8,6.87,-31.05,-31.39,0,*77
1495897551.09,33928,15.31,74262.0,6.87,-30.61,-30.83,0,*7B
1495897552.34,33929,15.31,74258.5,6.87,-31.39,-31.67,0,*7D
1495897553.59,33930,15.31,74258.0,6.87,-30.89,-31.05,0,*7B
1495897554.84,33931,15.31,74258.3,6.87,-30.45,-30.73,0,*7A
1495897556.1,33932,15.31,74256.0,6.89,-29.35,-29.35,0,*72
1495897557.35,33933,15.31,74258.0,6.91,-30.23,-30.39,0,*71
1495897558.56,33934,15.31,74258.3,6.89,-29.45,-29.79,0,*7B
1495897559.78,33935,15.31,74256.5,6.89,-30.77,-31.33,0,*74
1495897561.06,33936,15.31,74258.3,6.91,-30.61,-30.95,0,*74
1495897562.34,33937,15.31,74258.8,6.91,-30.95,-31.11,0,*73
1495897563.57,33938,15.31,74254.8,6.89,-30.45,-30.77,0,*79
1495897564.8,33939,15.31,74254.3,6.91,-30.23,-30.33,0,*71
1495897566.06,33940,15.31,74254.3,6.93,-30.01,-30.17,0,*7B
1495897567.29,33941,15.31,74250.8,6.93,-29.57,-29.89,0,*7E
1495897568.52,33942,15.31,74250.5,6.95,-29.61,-29.83,0,*74
1495897569.74,33943,15.31,74250.8,6.95,-29.07,-29.23,0,*7F
1495897570.99,33944,15.31,74254.0,6.97,-29.29,-29.51,0,*73
1495897572.19,33945,15.31,74252.8,6.97,-28.53,-28.69,0,*74
1495897573.43,33946,15.31,74248.5,6.99,-29.01,-29.07,0,*76
1495897574.67,33947,15.31,74248.8,7.05,-28.21,-28.31,0,*74
1495897575.92,33948,15.31,74258.3,7.05,-28.47,-28.63,0,*7C
1495897577.14,33949,15.31,74252.5,7.07,-29.07,-29.45,0,*7F
1495897578.34,33950,15.31,74258.0,7.09,-29.79,-29.83,0,*7A
1495897579.6,33951,15.31,74256.3,7.07,-30.55,-30.67,0,*71
1495897580.85,33952,15.31,74260.5,7.09,-30.73,-30.89,0,*78
1495897582.08,33953,15.31,74254.3,7.07,-29.45,-29.61,0,*74
1495897583.36,33954,15.31,74256.3,7.07,-29.29,-29.51,0,*7A
1495897584.61,33955,15.31,74254.0,7.11,-29.89,-29.95,0,*7E
1495897585.82,33956,15.31,74256.3,7.13,-28.69,-28.85,0,*70
1495897587.01,33957,15.31,74258.8,7.13,-28.85,-29.07,0,*78
1495897588.24,33958,15.31,74254.3,7.13,-29.89,-30.23,0,*74
1495897589.49,33959,15.31,74254.8,7.15,-30.01,-30.23,0,*7B
1495897590.7,33960,15.31,74260.5,7.17,-29.45,-29.67,0,*73
1495897591.99,33961,15.31,74260.0,7.15,-31.11,-31.51,0,*74
1495897593.24,33962,15.31,74262.0,7.15,-30.27,-30.55,0,*76
1495897594.5,33963,15.31,74260.3,7.15,-29.57,-29.73,0,*74
1495897595.7,33964,15.31,74262.3,7.17,-29.45,-29.67,0,*77
1495897596.98,33965,15.31,74258.0,7.15,-30.39,-30.55,0,*7E
1495897598.23,33966,15.31,74258.5,7.17,-29.17,-29.35,0,*75
1495897599.48,33967,15.31,74262.0,7.17,-29.13,-29.35,0,*70
1495897600.73,33968,15.31,74260.0,7.17,-28.79,-28.91,0,*7D
1495897601.99,33969,15.31,74262.8,7.21,-28.75,-28.91,0,*75
1495897603.21,33970,15.31,74258.5,7.21,-29.29,-29.45,0,*7D
1495897604.46,33971,15.31,74264.3,7.25,-28.75,-28.91,0,*78
1495897605.71,33972,15.31,74262.8,7.25,-28.91,-29.17,0,*7E
1495897606.94,33973,15.31,74256.3,7.27,-28.85,-29.07,0,*79
1495897608.16,33974,15.31,74260.5,7.25,-28.69,-28.79,0,*76
1495897609.38,33975,15.31,74262.8,7.29,-28.31,-28.43,0,*7F
1495897610.61,33976,15.31,74252.5,7.29,-28.97,-29.17,0,*70
1495897611.88,33977,15.31,74250.5,7.31,-29.01,-29.17,0,*76
1495897613.11,33978,15.31,74252.8,7.31,-29.45,-29.45,0,*7E
1495897614.38,33979,15.31,74256.8,7.31,-28.63,-28.79,0,*74
1495897615.61,33980,15.31,74264.3,7.35,-28.53,-28.53,0,*7D
1495897616.84,33981,15.31,74260.0,7.33,-28.25,-28.37,0,*79
1495897618.12,33982,15.31,74256.5,7.35,-28.05,-28.21,0,*79
1495897619.33,33983,15.31,74258.0,7.37,-28.31,-28.31,0,*7C
1495897620.61,33984,15.31,74266.8,7.39,-28.25,-28.43,0,*75
1495897621.85,33985,15.38,74264.5,7.39,-28.85,-29.13,0,*7A
1495897623.14,33986,15.31,74254.3,7.39,-29.35,-29.51,0,*75
1495897624.38,33987,15.31,74252.5,7.41,-28.63,-28.79,0,*72
1495897625.66,33988,15.31,74256.5,7.43,-28.43,-28.59,0,*7F
1495897626.91,33989,15.31,74256.3,7.41,-28.09,-28.21,0,*7D
1495897628.16,33990,15.31,74250.3,7.47,-28.85,-28.91,0,*7C
1495897629.43,33991,15.31,74250.8,7.43,-28.43,-28.59,0,*77
1495897630.68,33992,15.31,74254.8,7.47,-28.37,-28.47,0,*7C
1495897631.93,33993,15.31,74258.0,7.49,-28.31,-28.47,0,*75
1495897633.16,33994,15.31,74252.0,7.49,-29.67,-29.79,0,*7C
1495897634.41,33995,15.31,74256.0,7.49,-29.07,-29.17,0,*73
1495897635.63,33996,15.31,74254.0,7.51,-28.47,-28.69,0,*74
1495897636.89,33997,15.31,74252.5,7.49,-29.51,-29.57,0,*76
1495897638.11,33998,15.31,74254.0,7.51,-28.69,-28.79,0,*77
1495897639.34,33999,15.31,74252.0,7.51,-28.79,-28.85,0,*74
1495897640.62,34000,15.31,74252.0,7.53,-28.43,-28.63,0,*79
1495897641.88,34001,15.31,74254.3,7.53,-28.91,-28.97,0,*7C
1495897643.16,34002,15.31,74254.8,7.53,-28.43,-28.43,0,*79
1495897644.41,34003,15.31,74250.8,7.55,-28.59,-28.79,0,*7C
1495897645.66,34004,15.31,74248.8,7.55,-28.47,-28.47,0,*79
1495897646.89,34005,15.31,74250.5,7.55,-28.37,-28.43,0,*7B
1495897648.14,34006,15.31,74250.5,7.57,-28.53,-28.59,0,*73
1495897649.36,34007,15.31,74252.3,7.59,-28.53,-28.79,0,*7E
1495897650.61,34008,15.31,74250.0,7.59,-29.01,-29.13,0,*7A
1495897651.87,34009,15.31,74254.5,7.61,-28.79,-28.85,0,*70
1495897653.1,34010,15.31,74252.5,7.59,-29.35,-29.57,0,*74
1495897654.34,34011,15.31,74248.3,7.63,-30.05,-30.05,0,*78
1495897655.62,34012,15.31,74248.8,7.61,-29.01,-29.13,0,*7A
1495897656.82,34013,15.31,74254.8,7.59,-28.31,-28.37,0,*75
1495897658.07,34014,15.31,74256.5,7.61,-28.63,-28.69,0,*75
1495897659.29,34015,15.31,74256.5,7.63,-28.47,-28.31,0,*7D
1495897660.55,34016,15.31,74254.3,7.63,-28.05,-28.09,0,*73
1495897661.82,34017,15.31,74254.8,7.65,-28.79,-28.79,0,*78
1495897663.06,34018,15.31,74250.5,7.65,-29.13,-29.23,0,*74
1495897664.33,34019,15.31,74256.3,7.65,-28.63,-28.79,0,*7D
1495897665.53,34020,15.31,74254.8,7.67,-28.37,-28.37,0,*7E
1495897666.76,34021,15.31,74252.3,7.71,-28.53,-28.63,0,*7B
1495897668.0,34022,15.31,74252.5,7.71,-28.47,-28.47,0,*7B
1495897669.23,34023,15.31,74254.5,7.71,-28.53,-28.63,0,*79
1495897670.47,34024,15.31,74256.8,7.71,-29.17,-29.29,0,*70
1495897671.72,34025,15.31,74258.8,7.71,-30.73,-30.73,0,*7C
1495897672.92,34026,15.31,74262.5,7.67,-30.11,-30.11,0,*78
1495897674.15,34027,15.31,74254.5,7.67,-30.51,-30.67,0,*7C
1495897675.4,34028,15.31,74254.8,7.67,-29.89,-29.89,0,*76
1495897676.62,34029,15.31,74244.3,7.67,-29.23,-29.39,0,*7C
1495897677.85,34030,15.31,74250.5,7.67,-29.23,-29.35,0,*78
1495897679.07,34031,15.31,74258.0,7.67,-28.53,-28.75,0,*7A
1495897680.27,34032,15.31,74256.0,7.71,-28.85,-28.85,0,*7A
1495897681.5,34033,15.31,74256.3,7.71,-28.63,-28.69,0,*71
1495897682.7,34034,15.31,74258.3,7.71,-28.85,-28.85,0,*7C
1495897683.97,34035,15.31,74258.8,7.73,-29.01,-29.13,0,*7C
1495897685.24,34036,15.31,74258.8,7.73,-29.17,-29.17,0,*7C
1495897686.49,34037,15.31,74262.3,7.75,-30.01,-30.17,0,*7C
1495897687.76,34038,15.31,74262.0,7.73,-30.01,-30.01,0,*72
1495897689.03,34039,15.31,74264.5,7.73,-31.39,-31.51,0,*7D
1495897690.23,34040,15.31,74256.3,7.75,-29.79,-29.83,0,*7E
1495897691.5,34041,15.31,74258.3,7.73,-29.35,-29.39,0,*70
1495897692.78,34042,15.38,74260.8,7.73,-29.01,-29.01,0,*7F
1495897694.02,34043,15.31,74258.0,7.75,-29.29,-29.35,0,*75
1495897695.28,34044,15.31,74262.5,7.73,-29.39,-29.57,0,*71
1495897696.53,34045,15.31,74258.5,7.75,-28.79,-28.91,0,*78
1495897697.76,34046,15.31,74254.8,7.73,-29.57,-29.83,0,*72
1495897699.0,34047,15.31,74252.3,7.75,-28.75,-28.79,0,*70
1495897700.24,34048,15.31,74256.5,7.75,-28.47,-28.63,0,*75
1495897701.5,34049,15.31,74254.0,7.77,-29.29,-29.45,0,*7A
1495897702.78,34050,15.31,74260.0,7.77,-30.17,-30.17,0,*78
1495897704.03,34051,15.31,74258.3,7.77,-29.29,-29.45,0,*73